• In Uzbekistan
  • List of Countries
  • For 7 days
  • Water Temperature
  • Satellite Maps
  • Weather Map
  • Weather Widgets
  • user-avatar
    Login

    Hourly Weather Obock

    Today, 15 October, Monday

    Time Temperature Precipitation Wind Pressure Humidity
    00:00 +35°C° 0 mm 3 mps 753 mmHg 57%
    01:00 +35°C° 0 mm 3 mps 753 mmHg 58%
    02:00 +34°C° 0 mm 3 mps 753 mmHg 59%
    03:00 +34°C° 0 mm 2 mps 753 mmHg 58%
    04:00 +34°C° 0 mm 2 mps 753 mmHg 59%
    05:00 +34°C° 0 mm 2 mps 753 mmHg 60%
    06:00 +32°C° 0 mm 2 mps 754 mmHg 60%
    07:00 +34°C° 0 mm 2 mps 754 mmHg 54%
    08:00 +36°C° 0 mm 2 mps 754 mmHg 48%
    09:00 +37°C° 0 mm 2 mps 755 mmHg 42%
    10:00 +38°C° 0 mm 3 mps 754 mmHg 38%
    11:00 +39°C° 0 mm 3 mps 754 mmHg 34%
    12:00 +40°C° 0 mm 3 mps 754 mmHg 29%
    13:00 +40°C° 0 mm 3 mps 753 mmHg 29%
    14:00 +40°C° 0 mm 3 mps 753 mmHg 29%
    15:00 +41°C° 0 mm 4 mps 752 mmHg 29%
    16:00 +40°C° 0 mm 4 mps 752 mmHg 33%
    17:00 +38°C° 0 mm 4 mps 753 mmHg 36%
    18:00 +37°C° 0 mm 4 mps 753 mmHg 40%
    19:00 +37°C° 0 mm 3 mps 753 mmHg 42%
    20:00 +36°C° 0 mm 2 mps 753 mmHg 44%
    21:00 +35°C° 0 mm 2 mps 754 mmHg 47%
    22:00 +35°C° 0 mm 2 mps 754 mmHg 48%
    23:00 +35°C° 0 mm 2 mps 754 mmHg 50%

    Tomorrow, 16 October, Tuesday

    Time Temperature Precipitation Wind Pressure Humidity
    00:00 +34°C° 0 mm 3 mps 754 mmHg 51%
    01:00 +34°C° 0 mm 3 mps 754 mmHg 55%
    02:00 +33°C° 0 mm 3 mps 754 mmHg 59%
    03:00 +33°C° 0 mm 3 mps 754 mmHg 63%
    04:00 +31°C° 0 mm 2 mps 754 mmHg 63%
    05:00 +31°C° 0 mm 2 mps 754 mmHg 62%
    06:00 +31°C° 0 mm 1 mps 755 mmHg 62%
    07:00 +32°C° 0 mm 2 mps 755 mmHg 57%
    08:00 +34°C° 0 mm 3 mps 755 mmHg 52%
    09:00 +35°C° 0 mm 4 mps 756 mmHg 47%
    10:00 +35°C° 0 mm 4 mps 755 mmHg 47%
    11:00 +36°C° 0 mm 5 mps 755 mmHg 47%
    12:00 +37°C° 0 mm 5 mps 755 mmHg 47%
    13:00 +37°C° 0 mm 5 mps 754 mmHg 48%
    14:00 +37°C° 0 mm 5 mps 753 mmHg 49%
    15:00 +37°C° 0 mm 5 mps 753 mmHg 50%
    16:00 +36°C° 0 mm 5 mps 753 mmHg 52%
    17:00 +35°C° 0 mm 5 mps 753 mmHg 55%
    18:00 +34°C° 0 mm 4 mps 753 mmHg 58%
    19:00 +34°C° 0 mm 4 mps 753 mmHg 60%
    20:00 +34°C° 0 mm 4 mps 754 mmHg 61%
    21:00 +33°C° 0 mm 3 mps 754 mmHg 63%
    22:00 +33°C° 0 mm 3 mps 754 mmHg 65%
    23:00 +33°C° 0 mm 3 mps 755 mmHg 68%

    Day after tomorrow, 17 October, Wednesday

    Time Temperature Precipitation Wind Pressure Humidity
    00:00 +31°C° 0 mm 3 mps 755 mmHg 71%
    01:00 +31°C° 0 mm 3 mps 754 mmHg 73%
    02:00 +32°C° 0 mm 4 mps 754 mmHg 75%
    03:00 +32°C° 0 mm 4 mps 753 mmHg 78%
    04:00 +30°C° 0.1 mm 4 mps 754 mmHg 79%
    05:00 +30°C° 0.1 mm 4 mps 754 mmHg 81%
    06:00 +30°C° 0.1 mm 5 mps 754 mmHg 83%
    07:00 +32°C° 0.1 mm 5 mps 755 mmHg 77%
    08:00 +33°C° 0.1 mm 5 mps 755 mmHg 72%
    09:00 +33°C° 0.1 mm 6 mps 756 mmHg 67%
    10:00 +34°C° 0 mm 6 mps 755 mmHg 62%
    11:00 +35°C° 0 mm 7 mps 755 mmHg 57%
    12:00 +36°C° 0 mm 7 mps 755 mmHg 53%
    13:00 +36°C° 0 mm 7 mps 754 mmHg 53%
    14:00 +36°C° 0 mm 7 mps 753 mmHg 53%
    15:00 +36°C° 0 mm 7 mps 752 mmHg 53%
    16:00 +35°C° 0.1 mm 7 mps 752 mmHg 57%
    17:00 +34°C° 0.1 mm 7 mps 752 mmHg 60%
    18:00 +33°C° 0.1 mm 6 mps 752 mmHg 64%
    19:00 +33°C° 0.5 mm 6 mps 753 mmHg 65%
    20:00 +33°C° 0.5 mm 6 mps 754 mmHg 67%
    21:00 +33°C° 0.5 mm 5 mps 755 mmHg 68%
    22:00 +32°C° 1.1 mm 6 mps 755 mmHg 68%
    23:00 +32°C° 1.1 mm 6 mps 755 mmHg 69%

    18 October, Thursday

    Time Temperature Precipitation Wind Pressure Humidity
    00:00 +32°C° 1.1 mm 6 mps 755 mmHg 69%
    01:00 +32°C° 0.4 mm 6 mps 754 mmHg 70%
    02:00 +32°C° 0.4 mm 6 mps 754 mmHg 71%
    03:00 +30°C° 0.4 mm 6 mps 753 mmHg 72%
    04:00 +30°C° 0.5 mm 6 mps 754 mmHg 73%
    05:00 +30°C° 0.5 mm 6 mps 754 mmHg 73%
    06:00 +30°C° 0.5 mm 6 mps 755 mmHg 74%
    07:00 +32°C° 0.4 mm 7 mps 755 mmHg 69%
    08:00 +33°C° 0.4 mm 7 mps 756 mmHg 65%
    09:00 +34°C° 0.4 mm 7 mps 756 mmHg 60%
    10:00 +34°C° 0.2 mm 8 mps 756 mmHg 58%
    11:00 +35°C° 0.2 mm 8 mps 755 mmHg 55%
    12:00 +37°C° 0.2 mm 8 mps 755 mmHg 52%
    13:00 +35°C° 0 mm 8 mps 754 mmHg 54%
    14:00 +35°C° 0 mm 8 mps 753 mmHg 55%
    15:00 +35°C° 0 mm 8 mps 753 mmHg 56%
    16:00 +34°C° 0 mm 7 mps 753 mmHg 60%
    17:00 +33°C° 0 mm 7 mps 753 mmHg 64%
    18:00 +33°C° 0 mm 7 mps 753 mmHg 68%
    19:00 +32°C° 0.3 mm 6 mps 754 mmHg 69%
    20:00 +32°C° 0.3 mm 6 mps 755 mmHg 70%
    21:00 +32°C° 0.3 mm 5 mps 755 mmHg 71%
    22:00 +32°C° 0.1 mm 5 mps 755 mmHg 71%
    23:00 +32°C° 0.1 mm 5 mps 755 mmHg 71%

    19 October, Friday

    Time Temperature Precipitation Wind Pressure Humidity
    00:00 +32°C° 0.1 mm 4 mps 755 mmHg 71%
    01:00 +30°C° 0 mm 4 mps 754 mmHg 72%
    02:00 +30°C° 0 mm 4 mps 754 mmHg 73%
    03:00 +30°C° 0 mm 4 mps 754 mmHg 74%
    04:00 +30°C° 0.5 mm 4 mps 754 mmHg 76%
    05:00 +30°C° 0.5 mm 4 mps 755 mmHg 77%
    06:00 +30°C° 0.5 mm 4 mps 755 mmHg 79%
    07:00 +32°C° 0.7 mm 4 mps 756 mmHg 73%
    08:00 +32°C° 0.7 mm 4 mps 756 mmHg 68%
    09:00 +33°C° 0.7 mm 5 mps 757 mmHg 63%
    10:00 +34°C° 0 mm 5 mps 756 mmHg 59%
    11:00 +35°C° 0 mm 5 mps 755 mmHg 54%
    12:00 +36°C° 0 mm 6 mps 755 mmHg 50%
    13:00 +36°C° 0 mm 6 mps 754 mmHg 50%
    14:00 +36°C° 0 mm 6 mps 754 mmHg 50%
    15:00 +36°C° 0 mm 6 mps 753 mmHg 50%
    16:00 +35°C° 0 mm 6 mps 753 mmHg 53%
    17:00 +34°C° 0 mm 5 mps 754 mmHg 56%
    18:00 +34°C° 0 mm 5 mps 754 mmHg 60%
    19:00 +33°C° 0 mm 5 mps 754 mmHg 62%
    20:00 +33°C° 0 mm 4 mps 755 mmHg 64%
    21:00 +33°C° 0 mm 4 mps 755 mmHg 66%
    22:00 +32°C° 0 mm 4 mps 755 mmHg 69%
    23:00 +32°C° 0 mm 4 mps 755 mmHg 72%

    20 October, Saturday

    Time Temperature Precipitation Wind Pressure Humidity
    00:00 +32°C° 0 mm 4 mps 755 mmHg 75%
    01:00 +32°C° 0 mm 4 mps 755 mmHg 77%
    02:00 +30°C° 0 mm 4 mps 754 mmHg 79%
    03:00 +30°C° 0 mm 4 mps 754 mmHg 81%
    04:00 +30°C° 0.2 mm 4 mps 755 mmHg 81%
    05:00 +30°C° 0.2 mm 4 mps 755 mmHg 82%
    06:00 +30°C° 0.2 mm 5 mps 756 mmHg 82%
    07:00 +32°C° 0.6 mm 5 mps 756 mmHg 77%
    08:00 +33°C° 0.6 mm 5 mps 756 mmHg 71%
    09:00 +33°C° 0.6 mm 5 mps 757 mmHg 65%
    10:00 +34°C° 0.1 mm 5 mps 756 mmHg 60%
    11:00 +35°C° 0.1 mm 5 mps 756 mmHg 55%
    12:00 +36°C° 0.1 mm 6 mps 755 mmHg 49%
    13:00 +36°C° 0 mm 6 mps 754 mmHg 50%
    14:00 +36°C° 0 mm 6 mps 754 mmHg 50%
    15:00 +36°C° 0 mm 6 mps 753 mmHg 50%
    16:00 +35°C° 0 mm 5 mps 754 mmHg 55%
    17:00 +34°C° 0 mm 5 mps 754 mmHg 59%
    18:00 +33°C° 0 mm 5 mps 754 mmHg 64%
    19:00 +33°C° 0 mm 5 mps 755 mmHg 67%
    20:00 +33°C° 0 mm 4 mps 755 mmHg 69%
    21:00 +32°C° 0 mm 4 mps 756 mmHg 72%
    22:00 +32°C° 0 mm 4 mps 755 mmHg 74%
    23:00 +32°C° 0 mm 4 mps 755 mmHg 76%
    Show more